Location: Newark
(27.9675°N, 86.8869°E)
Time: 16:18:39
(UTC+00:00)

ISS - Pass Details

Date: 17 September 2019
Orbit: 411 x 421 km, 51.6° (Epoch: 19 October)

Event Time Altitude Azimuth Distance (km) Brightness Sun altitude
Rises 13:48:58 0° 230° (SW) 2,327 0.5 -21.2°
Reaches altitude 10° 13:51:04 10° 235° (SW) 1,468 -0.5 -21.6°
Enters shadow 13:54:10 54° 302° (WNW) 501 -3.1 -22.3°
